Dewpoint
62 60 62 61 61 59 59 60 61 63 59 60 62 58 59 61 62 62 63 62 63 57 58 60 59 60 61 61 63 62 63 63 62 61 60 61 60 60 62 62 61 62 63 60 59 59 55 54 55 58 58 59 59 59 60 61 62 62 62 63 63 61 60
59 60 58 57 59 60 61 61 62 58 60 60 58 61 62 57 59 62 62 60 58 59 55 57 58 59 61 62 63 64 63 63 63 64 61 60 60 60 60 61 61 61 61 61 61 60 58 54 54 54 55 57 58 59 58 59 61 62 61 60 58 56 56
59 57 58 59 60 62 60 59 60 61 60 62 60 59 61 57 59 59 56 57 60 59 56 57 58 60 61 60 61 62 62 63 64 63 62 62 61 61 61 61 60 60 59 60 59 59 58 58 54 52 53 53 53 56 58 58 59 62 60 59 52 50 50
58 59 58 58 60 60 58 59 60 61 61 60 62 61 59 58 59 58 60 59 60 60 58 57 59 56 60 61 60 60 61 62 62 62 62 62 61 61 60 60 60 59 58 57 57 58 57 56 54 54 50 49 52 54 53 50 49 50 51 52 49 48 48
58 58 57 57 57 56 59 60 61 60 59 60 60 60 60 58 58 58 60 61 60 60 59 58 57 56 56 56 59 60 60 61 61 61 61 61 60 60 62 61 60 61 61 59 59 59 58 57 54 51 48 46 45 46 50 52 48 49 49 48 48 49 48
59 58 57 58 58 58 60 60 60 59 59 58 59 59 60 60 60 59 59 60 59 59 60 59 57 54 56 57 56 56 58 58 59 59 58 59 59 59 59 60 59 61 60 62 61 60 60 59 57 54 44 45 45 44 42 46 44 43 46 46 46 46 46
60 59 58 57 59 58 59 60 60 59 58 57 58 59 59 57 57 57 58 58 58 58 58 58 56 56 57 51 54 55 54 56 57 57 57 57 56 56 57 55 57 58 59 61 61 59 60 59 56 51 48 47 45 41 40 38 38 40 43 45 46 46 47
60 59 59 59 58 59 59 59 60 59 57 57 58 58 57 59 60 58 58 57 58 59 59 58 57 56 55 51 53 55 54 54 53 54 55 55 54 53 55 56 53 51 56 58 59 57 57 58 55 52 51 48 48 45 41 35 34 36 39 42 44 45 47
59 59 59 57 59 60 60 60 59 59 58 58 58 58 57 56 56 57 57 58 58 58 59 57 55 55 56 55 54 54 53 52 54 54 54 55 55 55 54 53 50 49 50 52 52 56 53 54 56 54 53 48 45 45 42 37 35 33 35 37 40 40 40
60 60 58 59 59 61 61 60 59 58 58 58 58 59 58 59 57 55 55 57 56 55 56 56 56 56 55 54 54 54 53 53 54 53 55 54 55 56 54 53 53 52 52 52 52 53 54 58 55 57 53 52 55 44 41 40 40 37 30 32 32 37 39
61 59 58 58 59 60 60 59 59 57 57 58 57 58 59 58 56 54 56 57 58 58 57 55 53 55 56 55 54 53 53 55 55 54 53 54 55 54 53 52 52 52 53 52 53 53 54 53 50 54 50 50 48 49 47 41 41 42 39 37 30 30 33
60 59 58 58 59 58 58 59 58 58 58 58 57 59 58 55 57 57 56 55 56 56 57 57 56 53 53 54 55 54 54 53 53 52 53 54 54 55 55 55 55 52 51 52 51 50 51 55 54 45 51 49 50 51 42 41 40 45 44 42 39 31 32
57 57 58 58 58 57 56 57 59 59 58 58 59 58 56 55 55 54 55 54 55 56 56 56 55 56 57 55 55 53 54 54 53 53 54 54 49 54 52 51 52 53 54 52 52 53 50 50 50 50 49 51 51 49 47 45 41 42 46 41 39 35 36
60 56 57 58 57 57 57 55 58 59 57 59 59 58 56 54 52 53 52 52 52 56 56 56 57 57 56 55 56 55 52 48 45 49 52 52 50 51 49 50 50 52 52 53 52 49 46 44 45 47 48 48 49 49 44 43 40 41 42 52 46 41 44
63 59 58 58 56 56 57 56 58 57 57 58 57 55 54 57 55 53 51 50 53 52 54 55 57 55 52 56 56 57 55 52 52 52 51 49 51 51 52 48 49 52 51 52 49 40 43 45 41 39 44 46 44 49 44 42 41 42 42 44 43 41 46
61 62 57 56 55 55 58 58 58 58 58 57 58 57 56 57 56 54 54 53 51 52 53 54 58 55 55 55 54 55 55 54 53 52 52 50 47 50 51 52 51 52 54 51 52 51 52 47 44 44 46 48 49 49 47 45 43 43 42 46 50 41 46
60 61 58 56 56 57 56 57 56 57 56 55 54 57 57 53 54 55 54 52 52 53 54 57 56 53 52 54 54 54 55 55 53 53 52 50 46 51 52 52 52 52 51 52 50 50 50 52 51 48 49 50 50 50 52 50 51 48 46 44 44 37 45
61 59 60 56 57 57 54 54 54 53 57 53 52 54 53 52 53 53 55 51 51 52 53 54 55 56 57 57 55 56 55 53 55 54 54 54 53 52 53 53 51 52 52 52 49 53 50 49 46 48 46 47 48 50 53 52 50 50 50 48 47 48 48
61 60 60 59 58 57 54 54 53 54 54 53 54 54 52 51 49 50 51 51 51 51 52 55 54 54 55 57 58 57 56 57 56 55 56 55 53 54 54 53 54 53 50 53 53 53 52 50 50 49 48 47 45 49 49 50 51 49 49 49 47 49 46
59 60 60 61 59 56 55 56 54 53 55 54 56 56 54 54 55 53 50 55 54 53 53 54 57 57 56 55 57 56 57 58 57 57 57 56 55 56 55 54 55 55 54 53 54 53 53 53 53 52 51 50 48 49 51 50 47 50 50 48 48 51 49
62 62 61 60 62 58 56 57 57 56 58 55 56 54 53 53 57 57 57 55 55 57 55 54 55 56 56 57 59 58 58 58 58 57 58 58 57 56 56 55 56 55 55 54 54 55 54 53 54 52 53 51 51 50 49 50 51 48 48 49 49 45 50
59 57 58 59 60 59 58 59 59 55 58 57 59 55 55 55 56 54 54 57 56 58 59 58 57 57 58 59 59 58 59 56 56 56 56 58 58 57 57 57 58 57 58 55 51 51 52 54 54 53 53 51 51 51 49 48 49 48 49 48 48 50 49
58 58 60 58 58 58 58 59 58 57 58 58 59 59 58 58 56 54 56 58 59 58 58 59 56 49 45 54 57 58 60 57 58 57 57 58 57 57 57 59 59 55 53 53 48 45 45 47 49 51 51 51 52 52 50 49 48 49 49 48 47 48 47
57 58 59 57 57 57 58 59 59 58 60 60 59 60 60 58 57 57 56 57 56 56 57 57 50 41 42 43 54 58 59 58 58 57 57 56 56 57 58 59 58 56 54 53 50 45 45 46 43 41 41 42 46 48 49 51 50 50 49 48 48 48 47
57 58 57 57 57 58 58 58 58 58 58 58 58 59 59 58 58 57 57 57 58 58 56 53 45 43 42 42 44 53 57 58 57 56 57 56 58 58 58 58 59 58 57 56 54 50 47 44 43 41 39 38 37 37 40 45 46 47 47 47 47 47 47
57 57 57 57 57 58 57 57 58 58 57 59 59 59 58 59 58 58 57 57 58 58 57 51 46 44 42 42 41 49 56 59 58 58 57 56 56 57 57 56 57 57 57 56 56 54 52 50 44 43 41 40 38 36 34 34 38 47 44 45 45 46 48
56 57 58 57 59 57 57 58 58 58 58 59 59 58 58 58 58 57 58 57 57 56 56 51 46 44 42 41 40 46 55 58 58 56 55 55 56 56 56 54 53 55 57 55 56 57 55 52 50 48 49 49 48 39 36 35 34 35 40 45 45 45 49
56 57 57 57 58 57 57 57 57 58 58 57 57 57 57 57 57 57 58 58 56 56 57 48 43 42 41 41 40 41 54 57 58 58 56 56 57 57 56 56 53 54 57 55 49 49 53 53 52 52 51 51 51 48 46 45 44 47 47 48 46 46 49
56 54 54 55 56 55 56 57 57 58 57 57 57 58 58 57 57 56 56 57 56 56 55 40 40 40 39 40 39 49 54 56 57 56 56 55 56 55 54 53 51 54 53 49 41 38 41 50 53 53 52 51 47 43 39 36 36 37 40 41 42 42 40
46 47 47 51 51 55 57 57 57 57 57 57 57 57 56 57 57 57 57 56 56 55 55 40 37 38 38 38 41 51 55 56 54 53 52 53 51 49 49 51 54 52 48 43 38 37 37 43 53 51 51 50 48 45 42 40 37 36 35 35 35 35 35
42 44 45 45 48 53 53 56 57 57 57 56 57 57 57 56 56 57 55 55 55 54 54 45 37 38 39 38 44 53 54 52 49 49 51 51 49 46 45 47 52 50 46 42 36 36 37 47 51 51 49 50 48 46 45 43 42 40 36 36 35 34 33
44 45 44 46 49 49 51 53 54 56 56 56 56 56 55 55 54 55 55 55 53 53 51 46 38 39 38 39 41 48 52 49 49 48 49 50 48 46 42 41 43 44 42 39 35 36 37 45 49 51 49 47 46 46 45 44 43 42 41 41 40 41 40
45 44 44 45 47 48 47 48 53 54 53 49 49 52 52 51 51 51 52 52 52 50 50 49 42 38 39 39 39 46 50 49 47 48 47 48 47 45 42 39 39 35 35 35 35 35 37 41 46 46 46 45 46 45 46 46 45 45 44 44 43 43 44
44 44 43 45 46 47 47 48 48 49 51 52 51 51 49 49 50 49 50 51 48 49 49 47 46 37 38 38 38 39 48 49 50 48 46 46 46 45 42 40 38 36 35 35 35 35 36 36 38 41 41 39 40 44 41 44 43 37 40 41 42 43 43
45 47 45 47 47 47 47 46 46 46 47 49 50 49 50 49 48 47 47 48 47 49 48 46 49 40 38 38 38 37 46 52 51 48 46 44 46 44 41 39 37 36 35 35 35 35 35 35 36 37 34 32 32 32 38 39 43 40 41 41 40 40 41
42 44 47 48 46 46 47 45 46 46 47 47 47 48 48 49 48 47 48 47 46 47 47 44 44 44 39 39 38 37 38 40 39 52 47 45 44 43 41 39 37 36 34 34 34 34 34 34 34 32 32 32 32 32 34 39 39 41 40 39 40 38 35
38 42 42 43 43 45 45 45 44 44 43 44 44 44 44 44 46 45 45 45 45 44 48 44 43 41 41 37 38 38 37 36 37 47 49 46 43 41 38 36 36 34 34 34 34 33 33 33 32 32 32 33 32 35 38 39 38 40 37 36 35 34 35